Regional Weather Roundup
Issued by NWS

Home | Current Version | Previous Version | Graphics & Text | Print | Product List | Glossary On
Versions: 1 2 3 4 5 6 7 8 9 10 11 12 13 14 15 16 17 18 19 20 21 22 23 24 25 26 27 28 29 30 31 32 33 34 35 36 37 38 39 40 41 42 43 44 45 46 47 48 49 50
000
ASUS43 KDMX 262106
RWRIA

WEATHER ROUNDUP FOR IOWA
NATIONAL WEATHER SERVICE DES MOINES IA
400 PM CDT WED JUL 26 2017

NOTE: "FAIR" INDICATES FEW OR NO CLOUDS BELOW 12,000 FEET WITH NO
SIGNIFICANT WEATHER AND/OR OBSTRUCTIONS TO VISIBILITY.

* - THESE STATIONS ARE NOT NWS STATIONS...THUS NOT UNDER NWS
QUALITY CONTROL.  THEY ALSO DO NOT REPORT WEATHER SUCH
AS PRECIPITATION OR FOG.

IAZ001>003-012>014-020>022-031>034-043>046-262200-
   NORTHWEST IOWA

CITY           SKY/WX    TMP DP  RH WIND       PRES   REMARKS
CARROLL *      CLOUDY    75  73  94 VRB3      30.00S
CHEROKEE *     PTSUNNY   80  72  75 E7        30.00F HX  84
DENISON *      CLOUDY    75  72  88 CALM      30.01F
ORANGE CITY *    N/A     82  70  65 E7        30.01S HX  86
SHELDON *      CLOUDY    81  70  69 NE8       30.01R HX  84
SIOUX CITY     PTSUNNY   84  72  67 E7        29.99F HX  89
SPENCER        CLOUDY    80  69  69 VRB3      30.01S HX  83
STORM LAKE *     N/A     77  70  78 E6        30.02R
$$

IAZ055>058-069>071-079>083-090>094-262200-
   SOUTHWEST IOWA

CITY           SKY/WX    TMP DP  RH WIND       PRES   REMARKS
ATLANTIC *     LGT RAIN  77  75  94 CALM      29.99S
AUDUBON *      PTSUNNY   77  72  83 CALM      30.01S
CLARINDA *     CLOUDY    77  75  94 SE5       30.00F
COUNCIL BLFS * LGT RAIN  73  73 100 N6        30.00S
CRESTON *      PTSUNNY   75  75 100 SE8       30.01F FOG
HARLAN  *      CLOUDY    75  75 100 S5        30.03S
LAMONI         CLOUDY    79  74  84 VRB3      30.00F HX  82
RED OAK *      CLOUDY    77  75  94 CALM      29.99S
SHENANDOAH *   CLOUDY    79  75  89 SE6       29.98S HX  82
$$

IAZ047>049-059>061-072>074-084-262200-
   CENTRAL IOWA

CITY           SKY/WX    TMP DP  RH WIND       PRES   REMARKS
AMES           LGT RAIN  73  73 100 E7        29.99S FOG
ANKENY *       PTSUNNY   79  73  83 CALM      29.99F HX  82
BOONE *        DRIZZLE   75  72  88 N5        30.00S
CHARITON *       N/A     79  73  83 S5        30.00F HAZE    HX  82
DES MOINES     LGT RAIN  79  76  90 E5        29.97F HX  83
GRINNELL*      CLOUDY    79  72  80 W3        30.02R HX  82
KNOXVILLE *      N/A     79  73  83 CALM      29.99S HX  82
MARSHALLTOWN   CLOUDY    79  72  79 N3        29.99F HX  82
NEWTON *       PTSUNNY   77  73  88 SW5       30.00F
PELLA *        LGT RAIN  78  71  77 NW3       30.01F HX  81
PERRY *        LGT RAIN  77  76  95 NE6       29.99F
$$

IAZ004>006-015-016-023>025-035-036-262200-
   NORTH CENTRAL IOWA

CITY           SKY/WX    TMP DP  RH WIND       PRES   REMARKS
ALGONA *       PTSUNNY   79  70  73 CALM      30.01S HX  81
CLARION *      CLOUDY    73  73 100 NE3       30.01S
ESTHERVILLE    PTSUNNY   81  70  69 VRB5      30.00F HX  84
FORT DODGE *   CLOUDY    73  68  83 SE6       30.02S
MASON CITY     CLOUDY    77  66  68 S3        30.01F
FOREST CITY *  CLOUDY    79  64  61 S6        30.00S HX  81
WEBSTER CITY *   N/A     75  70  83 NE6       29.99F
IOWA FALLS *   CLOUDY    78  70  75 E5        30.02S HX  80
$$

IAZ007>011-017>019-026>030-037>042-050>054-066-262200-
   NORTHEAST IOWA

CITY           SKY/WX    TMP DP  RH WIND       PRES   REMARKS
CEDAR RAPIDS   PTSUNNY   82  75  78 W5        29.96F HX  89
CHARLES CITY *   N/A     77  72  83 E5        29.99F
DECORAH *        N/A     75  70  83 CALM      29.97F
DUBUQUE        CLOUDY    80  73  79 CALM      30.00S HX  84
MONTICELLO *   PTSUNNY   82  75  78 NE5       29.97F HX  89
OELWEIN *        N/A     75  72  88 E8G15     30.00F
WATERLOO         N/A     77  71  82 E9        29.98F
$$

IAZ064-065-067-068-078-262200-
   EAST CENTRAL IOWA

CITY           SKY/WX    TMP DP  RH WIND       PRES   REMARKS
DAVENPORT        N/A     83  75  77 SE5       29.98F HX  90
IOWA CITY      CLOUDY    84  75  74 NW7       29.97F HX  92
MT. PLEASANT *   N/A     85  76  75 SE5       29.95F HX  94
MUSCATINE *      N/A     84  77  79 S6G12     29.95F HX  94
QUAD CITIES      N/A     85  76  74 E5        29.95F HX  94
$$

IAZ062-063-075>077-085>089-095>099-262200-
   SOUTHEAST IOWA

CITY           SKY/WX    TMP DP  RH WIND       PRES   REMARKS
BURLINGTON       N/A     86  78  77 S6        29.95F HX  98
FAIRFIELD *      N/A     81  72  74 NW8       29.96F HX  84
FORT MADISON *   N/A     86  81  84 SE5       29.96F HX 102
KEOKUK *       PTSUNNY   90  73  58 SW10      29.95F HX  98
OSKALOOSA *    PTSUNNY   82  73  74 W7        29.99S HX  86
CENTERVILLE *    N/A     81  73  78 CALM      30.03R HX  85
OTTUMWA        PTSUNNY   85  73  67 W7        29.98S HX  91
WASHINGTON *   LGT RAIN  70  70 100 N3        29.98S
$$

ABBREVIATIONS USED IN REMARKS
   TC - TEMPERATURES IN CELSIUS
  WCI - WIND CHILL INDEX
   HX - HEAT INDEX
  VSB - VISIBILITY
$$




USA.gov is the U.S. government's official web portal to all federal, state and local government web resources and services.